Home   Weather   Melle   Past weeks

Flag for Germany Past Weather in Melle, Lower Saxony, Germany — Yesterday and Last 2 Weeks

Now
23 °F

Clear.


Feels Like: 23 °F
Forecast: 24 / 30 °F
Wind: No wind

Location: Muenster / Osnabrueck

Current Time: Jan 21, 2017 at 3:09:02 am

Latest Report: Jan 21, 2017 at 2:20 am


Visibility: 10 mi

Pressure: 30.51 "Hg

Humidity: 93%

Dew Point: 21 °F

Location of MelleLocation

Past Weather in Melle — Graph

°F

Melle Temperature Yesterday

Maximum temperature yesterday: 41 °F (at 1:20 pm)
Minimum temperature yesterday: 21 °F (at 1:50 am)
Average temperature yesterday: 28 °F

High & Low Weather Summary for the Past Weeks

 TemperatureHumidityPressure
High46 °F (Jan 11, 1:50 pm)100% (Jan 7, 4:20 pm)30.74 "Hg (Jan 7, 4:20 pm)
Low16 °F (Jan 6, 5:20 am)36% (Jan 20, 1:50 pm)28.94 "Hg (Jan 13, 2:20 am)
Average32 °F87%30.19 "Hg
* Reported Jan 6 1:20 am — Jan 21 1:50 am, Melle, Weather by CustomWeather, © 2017

Note: Actual official high and low records may vary slightly from our data, if they occured in-between our weather recording intervals... More about our weather records

Advertising

Melle Weather History for the Previous 24 Hours

Scroll right to see more
 ConditionsComfort  
Time TempWeatherWind HumidityBarometerVisibility
1:50 am
Sat, Jan 21
25 °FClear.No wind93%30.51 "Hg10 mi
1:20 am25 °FClear.2 mph86%30.51 "Hg10 mi
12:50 am25 °FClear.2 mph93%30.51 "Hg10 mi
12:20 am25 °FClear.2 mph86%30.51 "Hg10 mi
11:50 pm
Fri, Jan 20
27 °FClear.2 mph86%30.51 "Hg10 mi
11:20 pm27 °FClear.3 mph86%30.54 "Hg10 mi
10:50 pm25 °FClear.No wind86%30.54 "Hg10 mi
10:20 pm27 °FClear.No wind80%30.54 "Hg10 mi
9:50 pm27 °FClear.No wind80%30.54 "Hg10 mi
9:20 pm27 °FClear.1 mph80%30.54 "Hg10 mi
8:50 pm28 °FClear.3 mph74%30.54 "Hg10 mi
8:20 pm27 °FClear.2 mph80%30.54 "Hg10 mi
7:50 pm28 °FClear.No wind74%30.54 "Hg10 mi
7:20 pm28 °FClear.1 mph74%30.54 "Hg10 mi
6:50 pm28 °FClear.3 mph74%30.54 "Hg10 mi
6:20 pm30 °FPassing clouds.3 mph69%30.54 "HgN/A
5:50 pm32 °FPassing clouds.3 mph64%30.54 "HgN/A
5:20 pm32 °FClear.3 mph60%30.54 "Hg10 mi
4:50 pm36 °FSunny.2 mph44%30.54 "Hg10 mi
4:20 pm36 °FSunny.5 mph52%30.54 "Hg10 mi
3:50 pm39 °FPassing clouds.3 mph42%30.54 "HgN/A
3:20 pm39 °FPassing clouds.6 mph42%30.54 "HgN/A
2:50 pm41 °FPassing clouds.5 mph39%30.54 "HgN/A
2:20 pm41 °FPassing clouds.5 mph39%30.54 "HgN/A
1:50 pm41 °FSunny.3 mph36%30.57 "Hg10 mi
1:20 pm41 °FSunny.2 mph39%30.57 "Hg10 mi
12:50 pm39 °FPassing clouds.3 mph45%30.57 "HgN/A
12:20 pm37 °FSunny.2 mph52%30.57 "Hg10 mi
11:50 am36 °FSunny.1 mph65%30.60 "Hg10 mi
11:20 am32 °FSunny.No wind75%30.60 "Hg10 mi
10:50 am30 °FSunny.No wind86%30.60 "Hg10 mi
10:20 am27 °FSunny.No wind93%30.60 "Hg10 mi
9:50 am25 °FSunny.No wind93%30.60 "Hg10 mi
9:20 am23 °FSunny.No wind93%30.60 "Hg10 mi
8:50 am23 °FSunny.1 mph93%30.60 "Hg10 mi
8:20 am21 °FClear.2 mph93%30.60 "Hg10 mi
7:50 am21 °FClear.No wind93%30.60 "Hg10 mi
7:20 am21 °FClear.No wind93%30.60 "Hg10 mi
6:50 am21 °FClear.No wind93%30.60 "Hg10 mi
6:20 am23 °FClear.No wind86%30.60 "Hg10 mi
5:50 am23 °FClear.No wind93%30.60 "Hg10 mi
5:20 am23 °FClear.No wind93%30.60 "Hg10 mi
4:50 am23 °FClear.No wind93%30.60 "Hg10 mi
4:20 am21 °FClear.No wind93%30.60 "Hg10 mi
3:50 am21 °FClear.1 mph93%30.60 "Hg10 mi
3:20 am21 °FClear.No wind93%30.60 "Hg10 mi
Weather by CustomWeather, © 2017

See weather overviewHow to use our weather pages